Wind_Speed
29 29 29 29 29 29 29 29 29 28 28 28 28 27 27 28 27 27 27 27 26 26 26 26 26 25 25 25 25 24 24 24 24 24 24 24 24 24 23 23 23 23 23
30 30 30 30 30 30 30 30 30 30 30 30 29 29 28 29 29 29 28 28 29 28 28 28 27 27 27 26 26 26 26 26 26 25 25 25 25 25 25 25 25 25 25
32 31 31 31 31 31 31 30 30 31 31 31 31 30 30 30 30 30 30 30 30 30 30 30 29 29 29 28 28 27 28 28 28 28 27 27 27 27 27 27 27 27 27
33 32 32 31 32 32 32 31 31 31 32 32 32 32 32 32 32 32 32 32 32 32 32 32 31 32 31 30 30 30 29 29 30 29 29 29 29 29 29 29 29 30 29
34 34 33 33 33 33 33 33 33 33 33 33 33 33 33 33 33 34 34 34 33 33 33 33 33 33 33 32 32 32 32 32 32 31 31 31 31 31 31 31 31 32 32
35 35 35 35 34 35 34 34 34 34 34 34 35 35 35 34 34 35 35 35 35 34 34 34 34 35 35 35 35 35 34 34 34 33 33 34 34 34 34 34 34 34 34
36 35 35 36 35 35 35 35 35 35 35 35 35 35 35 36 36 36 36 36 35 35 35 35 35 36 36 36 36 36 36 36 36 36 36 36 36 36 36 36 36 35 36
37 36 36 36 36 36 36 36 36 36 36 36 35 36 35 36 36 37 37 38 37 37 36 36 36 36 36 37 37 37 38 38 38 38 38 38 38 38 38 38 38 38 37
39 38 38 38 38 37 37 36 36 36 36 36 37 37 36 36 37 37 38 38 38 39 39 38 38 39 39 39 38 38 39 39 39 39 39 40 40 40 40 40 41 41 40
41 40 40 39 39 39 37 37 36 36 37 37 37 37 37 36 36 37 37 38 38 39 40 40 40 40 40 41 40 39 40 40 41 41 41 41 41 42 41 41 41 41 41
42 42 41 41 40 40 39 38 38 37 37 37 37 37 37 37 37 37 37 38 39 39 40 41 41 41 42 42 42 42 42 42 42 42 43 43 43 43 43 42 42 43 43
44 43 42 42 41 41 40 40 39 38 38 38 38 38 37 36 37 37 38 38 39 40 41 41 41 42 42 42 43 43 42 42 43 43 43 44 44 44 44 44 44 45 45
44 44 43 43 42 42 41 41 40 38 39 38 38 38 37 37 37 38 38 38 39 39 40 41 42 42 42 42 43 43 43 43 43 44 44 45 45 45 45 46 46 46 47
44 44 44 43 43 42 42 41 40 39 39 39 39 39 38 38 38 39 39 39 39 39 39 41 41 42 42 43 43 44 44 44 45 45 46 46 46 46 47 48 48 49 49
45 44 44 44 43 43 42 41 41 40 40 39 39 39 39 38 38 39 39 40 40 40 39 40 41 42 43 44 44 44 44 45 46 47 47 47 48 48 48 49 49 49 49
45 45 45 44 43 43 43 43 42 41 40 40 40 40 40 40 39 39 39 40 40 40 40 40 42 42 43 43 44 44 45 45 46 47 48 48 48 48 49 49 50 51 51
45 45 45 45 44 43 44 44 42 42 41 41 41 41 41 41 40 40 40 40 41 40 40 41 42 43 43 44 45 45 45 46 47 47 48 49 49 49 50 50 51 51 52
45 45 45 45 44 44 43 43 43 43 42 42 42 42 42 42 41 41 41 41 41 42 42 42 43 43 43 44 45 45 46 47 48 48 49 49 50 50 51 52 52 52 52
45 44 44 44 44 44 43 43 43 43 43 43 43 43 42 42 42 43 43 43 43 43 43 43 43 44 44 45 46 46 47 47 48 49 49 50 50 51 51 51 51 51 51
45 44 44 44 44 44 44 43 43 43 43 43 43 43 42 43 43 43 44 43 43 44 44 44 44 45 46 46 47 48 48 48 48 49 50 50 51 51 50 50 50 50 50
46 45 44 45 44 43 44 43 43 42 42 43 43 43 43 43 43 43 43 43 44 44 45 45 45 46 47 48 48 49 49 49 49 50 50 50 50 49 49 49 49 49 49
46 45 45 45 44 44 44 44 44 43 42 42 41 41 42 43 42 43 43 44 44 45 45 46 46 47 48 48 49 49 49 49 49 49 49 49 49 48 48 48 47 47 48
45 45 44 44 44 44 44 44 44 43 43 42 42 42 42 43 42 42 43 44 44 45 45 45 46 46 47 48 48 48 48 48 47 47 48 48 47 47 46 45 45 45 46
45 45 45 45 44 44 43 43 43 42 42 42 43 43 42 42 43 43 44 44 45 45 45 45 45 46 46 46 47 47 47 47 46 45 45 45 44 43 43 43 43 43 43
44 44 43 43 43 43 43 43 42 41 42 42 42 43 42 42 43 43 43 44 44 44 44 44 45 45 45 45 45 45 45 45 44 43 43 42 41 41 41 41 42 42 42
42 42 42 42 42 42 42 43 43 42 41 42 42 42 42 42 42 42 43 43 43 43 43 43 44 44 44 44 44 43 43 42 42 41 40 40 39 40 39 40 41 41 40
Wind_Direction
250 250 251 252 252 252 253 255 255 255 256 256 257 257 258 258 257 257 258 258 260 262 264 265 266 268 269 270 272 274 275 277 279 281 283 284 284 286 287 288 289 289 288
251 251 251 252 253 253 254 255 256 256 256 256 257 257 257 257 257 258 259 259 260 261 263 265 267 268 268 269 271 273 274 275 277 279 281 283 284 285 285 286 287 288 288
251 252 252 252 253 253 254 255 256 256 257 256 257 258 256 256 258 258 259 260 261 261 262 264 266 267 268 269 270 272 273 274 276 278 280 281 282 283 284 285 286 286 287
251 251 252 253 253 254 255 256 257 257 258 258 259 259 258 257 257 259 260 261 262 262 263 264 265 266 267 268 270 271 272 274 275 277 279 280 281 281 282 283 284 285 285
252 252 252 253 254 255 257 258 258 258 259 260 260 260 259 258 258 259 260 261 261 262 264 264 264 265 266 267 269 271 272 273 275 276 278 279 280 279 280 281 283 283 283
252 253 253 254 255 255 257 258 257 258 260 261 261 260 260 259 259 260 260 261 262 262 263 264 264 266 267 268 269 271 272 273 274 276 278 279 279 279 279 280 281 282 283
252 253 254 255 255 256 257 257 257 258 259 261 261 261 261 260 260 260 260 261 262 262 263 264 265 265 267 269 270 271 272 273 274 276 277 278 278 279 279 279 280 281 282
252 253 254 254 254 256 257 257 258 258 259 260 261 261 261 261 261 261 261 261 262 262 263 263 264 265 267 269 270 272 273 273 274 275 276 277 278 278 280 279 279 280 281
251 253 254 255 254 254 256 257 259 258 259 259 260 261 262 262 262 262 263 263 263 263 263 264 265 266 267 269 270 272 273 274 274 276 276 277 278 279 280 279 279 279 280
251 252 253 254 254 255 255 257 259 259 258 258 259 261 262 264 263 263 264 264 264 264 264 265 266 267 268 269 271 272 273 275 275 276 278 278 279 279 279 278 279 280 281
251 251 252 253 253 254 255 257 257 259 258 258 260 261 262 264 264 264 264 264 265 265 265 266 267 268 270 271 272 273 274 275 276 277 278 279 279 279 278 279 280 281 282
250 251 252 252 252 253 254 255 257 259 259 259 259 260 262 263 264 265 265 265 265 266 266 267 268 269 270 271 272 274 275 275 277 277 278 278 278 278 279 279 280 282 282
250 251 251 251 252 253 253 253 255 258 259 257 258 260 262 263 264 265 266 266 266 267 268 268 268 269 271 272 273 274 275 276 276 277 278 279 279 277 278 280 280 281 282
249 250 251 251 252 252 252 253 255 257 258 257 257 258 260 262 264 265 265 266 266 267 269 270 269 270 272 272 273 274 275 276 276 277 277 278 279 278 279 280 281 281 282
249 249 249 250 251 251 251 253 255 256 256 257 257 258 260 262 264 265 266 267 267 268 268 270 270 270 272 272 272 274 275 276 277 277 277 279 280 280 280 279 281 282 282
248 248 249 250 250 250 250 251 253 254 255 256 257 258 260 262 263 265 267 269 269 269 269 270 270 270 272 273 274 275 276 277 277 278 278 279 280 280 280 281 281 282 283
248 249 248 249 249 249 249 249 251 253 254 255 256 258 260 262 264 266 267 269 270 270 270 270 271 272 273 274 275 276 277 278 278 279 279 280 280 280 280 282 283 284 284
248 248 248 248 248 248 250 250 251 253 254 255 256 258 260 262 264 266 267 269 270 271 272 271 272 273 274 275 276 277 277 278 279 280 280 281 281 281 281 283 283 284 284
247 247 247 247 247 248 250 251 252 254 254 255 256 257 259 262 264 266 267 269 270 271 272 272 273 274 275 276 276 278 278 279 279 280 281 282 282 282 283 283 283 283 284
247 247 247 247 248 249 250 251 253 254 254 255 256 257 259 262 264 266 268 269 270 271 272 273 274 275 276 277 278 278 278 279 279 281 282 283 283 283 283 284 283 283 283
246 246 246 247 247 248 249 250 252 254 255 255 255 257 260 264 266 267 268 269 270 272 273 273 274 276 277 278 278 278 279 280 280 282 282 283 283 283 283 284 284 284 284
245 246 247 247 248 249 249 250 252 254 255 256 257 258 261 263 265 267 268 270 271 272 273 274 275 276 277 278 278 279 281 282 282 281 282 282 283 283 284 284 284 284 284
244 246 247 247 248 249 250 251 253 254 256 257 258 259 262 264 265 267 269 270 272 274 274 275 276 278 278 278 279 280 282 283 284 283 282 283 283 283 283 282 283 284 284
244 245 247 247 247 248 249 251 253 254 256 258 260 261 263 264 266 268 269 270 272 274 275 276 278 279 279 280 280 282 283 283 283 282 282 282 281 281 281 282 282 284 284
244 245 246 246 246 247 249 251 252 253 256 259 261 263 264 265 267 268 269 271 273 275 277 279 279 280 280 281 282 282 282 283 283 282 281 281 280 280 281 282 283 284 284
243 245 246 246 247 248 250 252 252 255 257 258 261 263 264 266 267 269 270 272 274 275 277 278 279 280 281 281 281 281 281 282 282 281 280 280 280 281 280 282 283 284 284
Height
5816 5818 5819 5820 5822 5823 5824 5826 5827 5828 5829 5830 5831 5832 5833 5833 5833 5834 5834 5835 5835 5836 5836 5836 5836 5837 5837 5836 5836 5836 5836 5835 5835 5834 5833 5832 5831 5830 5829 5828 5827 5826 5825
5810 5811 5813 5814 5815 5817 5818 5819 5820 5822 5823 5824 5825 5826 5826 5827 5827 5828 5828 5829 5829 5830 5830 5830 5830 5831 5830 5830 5830 5830 5830 5830 5829 5829 5828 5827 5826 5825 5824 5823 5822 5821 5820
5803 5805 5806 5807 5808 5810 5811 5812 5814 5815 5816 5817 5818 5819 5819 5820 5821 5821 5822 5822 5823 5823 5824 5824 5824 5824 5824 5824 5824 5824 5824 5824 5823 5822 5822 5821 5820 5819 5818 5817 5816 5815 5814
5796 5797 5799 5800 5801 5803 5804 5805 5806 5808 5809 5809 5810 5811 5812 5813 5813 5814 5815 5815 5816 5816 5816 5817 5817 5817 5818 5817 5817 5817 5817 5817 5816 5816 5815 5814 5813 5812 5811 5811 5810 5809 5807
5788 5790 5791 5793 5794 5796 5797 5798 5799 5800 5801 5802 5803 5803 5804 5805 5806 5806 5807 5807 5808 5809 5809 5809 5809 5810 5810 5810 5810 5810 5810 5809 5809 5808 5808 5807 5806 5805 5804 5803 5802 5801 5800
5780 5782 5784 5785 5786 5788 5789 5790 5791 5792 5793 5794 5794 5795 5796 5797 5797 5798 5799 5799 5800 5800 5801 5801 5801 5802 5802 5802 5802 5802 5802 5801 5801 5800 5800 5799 5798 5797 5796 5795 5794 5793 5792
5772 5774 5775 5777 5778 5780 5781 5782 5783 5784 5785 5785 5786 5786 5787 5788 5788 5789 5790 5790 5791 5792 5792 5793 5793 5793 5793 5793 5794 5794 5793 5793 5792 5792 5791 5790 5789 5788 5787 5787 5786 5785 5783
5763 5765 5766 5768 5770 5771 5772 5773 5774 5775 5776 5776 5777 5777 5778 5779 5779 5780 5781 5781 5782 5782 5783 5784 5784 5785 5784 5785 5785 5785 5785 5784 5784 5783 5782 5781 5780 5779 5778 5777 5776 5775 5774
5753 5756 5757 5759 5760 5762 5763 5764 5765 5766 5767 5767 5768 5769 5769 5770 5770 5771 5771 5772 5772 5773 5774 5774 5775 5776 5776 5776 5776 5776 5775 5775 5774 5774 5772 5772 5771 5770 5769 5768 5766 5765 5764
5744 5746 5748 5749 5751 5753 5754 5755 5756 5757 5757 5758 5759 5760 5761 5761 5761 5762 5762 5762 5763 5763 5764 5765 5765 5766 5766 5766 5766 5766 5766 5765 5765 5764 5763 5762 5761 5760 5759 5757 5756 5755 5754
5733 5735 5737 5739 5741 5743 5744 5745 5747 5748 5748 5749 5750 5751 5751 5752 5752 5753 5753 5753 5753 5754 5754 5755 5755 5756 5756 5756 5756 5756 5756 5755 5755 5754 5753 5752 5751 5749 5748 5747 5746 5745 5743
5723 5725 5727 5729 5731 5733 5734 5736 5737 5738 5739 5740 5741 5742 5742 5743 5743 5743 5743 5744 5744 5744 5744 5745 5745 5746 5746 5746 5746 5746 5745 5745 5744 5744 5743 5741 5739 5738 5738 5736 5735 5733 5732
5712 5714 5716 5718 5720 5722 5724 5726 5727 5728 5729 5730 5731 5733 5733 5734 5734 5734 5734 5734 5734 5735 5735 5735 5735 5736 5736 5736 5736 5735 5735 5734 5734 5733 5732 5730 5729 5727 5726 5725 5723 5722 5720
5701 5703 5705 5707 5710 5712 5714 5715 5717 5718 5719 5720 5722 5723 5724 5724 5724 5725 5725 5725 5725 5725 5725 5726 5726 5726 5725 5725 5725 5725 5724 5723 5723 5721 5720 5719 5717 5716 5714 5713 5711 5709 5707
5689 5691 5694 5696 5699 5701 5703 5705 5707 5708 5709 5711 5712 5713 5714 5715 5715 5715 5715 5715 5716 5715 5716 5716 5716 5715 5715 5715 5714 5714 5713 5712 5711 5710 5708 5707 5706 5704 5702 5700 5698 5696 5694
5677 5680 5682 5685 5687 5690 5692 5694 5696 5698 5699 5701 5702 5704 5705 5705 5706 5705 5706 5706 5705 5705 5705 5706 5705 5705 5705 5704 5703 5703 5702 5701 5700 5698 5697 5695 5693 5691 5689 5687 5685 5683 5680
5666 5668 5671 5673 5676 5678 5681 5683 5686 5687 5689 5691 5692 5693 5695 5695 5696 5696 5696 5696 5696 5695 5695 5695 5694 5694 5694 5693 5692 5691 5690 5689 5688 5686 5684 5682 5680 5678 5676 5673 5671 5669 5666
5654 5657 5659 5662 5665 5668 5670 5672 5675 5677 5678 5680 5682 5683 5684 5685 5685 5686 5686 5685 5685 5685 5684 5684 5683 5683 5682 5682 5681 5680 5678 5677 5675 5673 5671 5669 5667 5664 5662 5659 5656 5654 5651
5643 5645 5648 5651 5654 5657 5659 5662 5664 5666 5668 5669 5671 5672 5674 5674 5675 5675 5675 5675 5675 5674 5673 5673 5673 5671 5671 5670 5669 5668 5666 5664 5662 5660 5658 5656 5653 5650 5647 5644 5642 5639 5636
5631 5634 5637 5640 5643 5645 5648 5650 5653 5655 5656 5658 5660 5661 5663 5664 5664 5664 5664 5664 5664 5663 5662 5662 5661 5660 5659 5658 5657 5655 5654 5652 5650 5647 5645 5642 5639 5636 5633 5631 5628 5625 5622
5619 5622 5625 5628 5631 5634 5636 5639 5641 5643 5645 5647 5648 5650 5652 5652 5653 5653 5653 5653 5652 5652 5651 5650 5649 5648 5647 5646 5644 5642 5641 5639 5637 5634 5631 5628 5625 5623 5620 5617 5614 5611 5609
5607 5611 5613 5616 5620 5623 5625 5628 5630 5632 5634 5636 5638 5639 5640 5641 5642 5642 5642 5641 5641 5640 5639 5638 5637 5636 5635 5633 5631 5629 5627 5625 5624 5622 5617 5615 5612 5609 5606 5603 5601 5598 5595
5595 5599 5602 5605 5608 5611 5614 5616 5618 5621 5623 5625 5627 5628 5629 5630 5630 5630 5630 5629 5629 5628 5627 5626 5625 5624 5622 5620 5618 5616 5613 5611 5609 5606 5603 5602 5599 5596 5593 5590 5588 5585 5583
5584 5588 5591 5594 5597 5600 5603 5605 5607 5609 5611 5613 5615 5617 5618 5618 5619 5619 5619 5618 5617 5617 5616 5614 5613 5611 5609 5606 5604 5603 5600 5598 5596 5593 5589 5588 5586 5584 5581 5578 5576 5573 5571
5573 5577 5580 5583 5586 5589 5592 5594 5596 5598 5601 5603 5604 5605 5606 5607 5607 5607 5607 5607 5606 5605 5604 5602 5600 5598 5596 5594 5592 5590 5588 5585 5584 5582 5578 5576 5574 5573 5571 5568 5565 5562 5559
5562 5566 5569 5572 5575 5578 5581 5583 5585 5588 5590 5592 5593 5594 5595 5595 5596 5595 5595 5595 5595 5594 5592 5590 5588 5586 5584 5582 5579 5577 5576 5573 5571 5570 5567 5565 5563 5561 5561 5558 5555 5551 5549